GEOSCAN 6 (RS92S6)

Last updated on Mon Sep 15 2025 00:03:10 GMT+0000 (Coordinated Universal Time)

1 64879U 25155D 25256.92633675 .00008312 00000+0 35905-3 0 9991 2 64879 97.4190 221.4871 0011525 77.7181 282.5345 15.22685431 38610
UTC large
Height (km)
Speed (km/s)
/
Latitude / Longitude
Inclination (degrees)
Orbital Period (minutes)
Azimuth
Elevation
Range (km)
Doppler Factor

Next 0 passes for location: London (51.5072 / 0.1276)

Sorry there are no passes over London.